GW3281 Weather Reports


Display with metric or nautical units.
time (UTC)temp
F
wind
direction
speed
MPH
gust
MPH
rain 1hr
in
rain 24hr
in
rain mn
in
humidity
%
barometer
mb
20260509124018 50 77 2.0 4.0 0.00 0.00 0.00 94 1009.8
20260509123018 50 241 2.0 7.0 0.00 0.00 0.00 95 1009.9
20260509122016 50 34 2.0 6.0 0.00 0.00 0.00 95 1009.9
20260509121019 50 210 2.0 5.0 0.00 0.00 0.00 95 1009.9
20260509120019 50 235 2.0 4.0 0.00 0.00 0.00 95 1009.9
20260509115019 49 219 2.0 5.0 0.00 0.00 0.00 95 1009.4
20260509114036 49 162 2.0 6.0 0.00 0.00 0.00 95 1009.2
20260509113016 49 173 2.0 4.0 0.00 0.00 0.00 95 1009.0
20260509112037 49 150 2.0 4.0 0.00 0.00 0.00 95 1009.0
20260509111020 49 192 2.0 5.0 0.00 0.00 0.00 95 1009.1
20260509110040 49 171 1.0 4.0 0.00 0.00 0.00 95 1009.1
20260509105017 49 174 2.0 4.0 0.00 0.00 0.00 95 1009.1
20260509104017 49 146 2.0 5.0 0.00 0.00 0.00 95 1009.3
20260509103017 49 137 1.0 4.0 0.00 0.00 0.00 95 1009.2
20260509102018 49 134 2.0 4.0 0.00 0.00 0.00 95 1009.3
20260509101018 49 153 1.0 3.0 0.00 0.00 0.00 95 1009.4
20260509100018 48 192 1.0 5.0 0.00 0.00 0.00 95 1009.4
20260509095018 48 165 1.0 3.0 0.00 0.00 0.00 95 1009.4
20260509094038 48 150 1.0 3.0 0.00 0.00 0.00 95 1009.4
20260509093018 48 132 1.0 3.0 0.00 0.00 0.00 95 1009.5
20260509092016 48 119 1.0 2.0 0.00 0.00 0.00 94 1009.5
20260509091019 48 120 1.0 2.0 0.00 0.00 0.00 94 1009.5
20260509090019 49 130 1.0 2.0 0.00 0.00 0.00 94 1009.4
20260509085019 49 117 1.0 2.0 0.00 0.00 0.00 94 1009.4
20260509084016 49 120 1.0 2.0 0.00 0.00 0.00 94 1009.3
20260509083036 49 112 1.0 2.0 0.00 0.00 0.00 94 1009.3
20260509082016 49 135 1.0 3.0 0.00 0.00 0.00 94 1009.1
20260509081020 50 113 1.0 2.0 0.00 0.00 0.00 93 1009.1
20260509080017 50 106 1.0 3.0 0.00 0.00 0.00 93 1009.1
20260509075017 50 111 1.0 4.0 0.00 0.00 0.00 93 1009.0
20260509074017 51 92 2.0 3.0 0.00 0.00 0.00 93 1008.8
20260509073017 51 144 1.0 4.0 0.00 0.00 0.00 92 1008.8
20260509072017 51 107 1.0 3.0 0.00 0.00 0.00 92 1008.6
20260509071018 51 86 1.0 2.0 0.00 0.00 0.00 92 1008.4
20260509070018 51 103 1.0 3.0 0.00 0.00 0.00 91 1008.2
20260509065018 51 80 1.0 3.0 0.00 0.00 0.00 91 1008.1
20260509064018 51 77 1.0 3.0 0.00 0.00 0.00 90 1007.7
20260509063018 52 83 1.0 2.0 0.00 0.00 0.00 90 1007.4
20260509062015 52 81 1.0 3.0 0.00 0.00 0.00 89 1007.3
20260509061019 52 117 1.0 2.0 0.00 0.00 0.00 89 1007.4
20260509060019 53 112 1.0 3.0 0.00 0.00 0.00 88 1007.5
20260509055019 53 77 1.0 3.0 0.00 0.00 0.00 88 1007.5
20260509054016 53 165 1.0 7.0 0.00 0.00 0.00 88 1007.4
20260509053017 53 85 1.0 3.0 0.00 0.00 0.00 88 1007.4
20260509052015 53 105 1.0 3.0 0.00 0.00 0.00 88 1007.6
20260509051039 53 90 1.0 4.0 0.00 0.00 0.00 89 1007.6
20260509050017 53 97 1.0 3.0 0.00 0.00 0.00 89 1007.6
20260509045017 53 78 1.0 2.0 0.00 0.00 0.00 88 1007.6
20260509044036 53 90 2.0 4.0 0.00 0.00 0.00 88 1007.6
20260509043016 54 95 2.0 3.0 0.00 0.00 0.00 87 1007.5
20260509042017 54 102 2.0 3.0 0.00 0.00 0.00 87 1007.4
20260509041018 54 105 1.0 4.0 0.00 0.00 0.00 86 1007.4
20260509040017 54 89 2.0 3.0 0.00 0.00 0.00 85 1007.3
20260509035017 55 101 2.0 3.0 0.00 0.00 0.00 84 1007.2
20260509034017 55 122 2.0 4.0 0.00 0.00 0.00 84 1007.2
20260509033018 55 102 2.0 4.0 0.00 0.00 0.00 83 1007.1
20260509032038 56 99 2.0 3.0 0.00 0.00 0.00 81 1007.0
20260509031019 56 122 2.0 4.0 0.00 0.00 0.00 79 1006.9
20260509030016 57 197 1.0 5.0 0.00 0.00 0.00 78 1006.9
20260509025016 57 134 1.0 3.0 0.00 0.00 0.00 76 1006.9
20260509024019 58 188 1.0 4.0 0.00 0.00 0.00 75 1006.9
20260509023019 58 190 1.0 5.0 0.00 0.00 0.00 75 1006.9
20260509022016 58 220 2.0 7.0 0.00 0.00 0.00 74 1006.9
20260509021017 58 209 1.0 4.0 0.00 0.00 0.00 75 1006.9
20260509020017 59 190 1.0 5.0 0.00 0.00 0.00 74 1006.7
20260509015020 59 171 1.0 4.0 0.00 0.00 0.00 74 1006.6
20260509014017 59 171 2.0 4.0 0.00 0.00 0.00 74 1006.5
20260509013037 60 173 2.0 7.0 0.00 0.00 0.00 73 1006.5
20260509012018 60 188 2.0 9.0 0.00 0.00 0.00 71 1006.4
20260509011018 61 112 1.0 3.0 0.00 0.00 0.00 68 1006.5
20260509010017 61 115 1.0 3.0 0.00 0.00 0.00 66 1006.4
20260509005018 62 144 2.0 6.0 0.00 0.00 0.00 63 1006.5
20260509004018 62 135 2.0 4.0 0.00 0.00 0.00 60 1006.4
20260509003038 63 154 2.0 4.0 0.00 0.00 0.00 60 1006.4
20260509002018 63 211 2.0 4.0 0.00 0.00 0.00 59 1006.3
20260509001019 64 229 3.0 8.0 0.00 0.00 0.00 59 1006.4
20260509000016 65 212 2.0 7.0 0.00 0.00 0.00 57 1006.3
20260508235019 65 237 2.0 5.0 0.00 0.00 0.00 57 1006.4
20260508234119 66 212 2.0 6.0 0.00 0.00 0.00 57 1006.4
20260508233019 66 236 2.0 6.0 0.00 0.00 0.00 57 1006.4
20260508232016 67 202 2.0 6.0 0.00 0.01 0.00 58 1006.5
20260508231036 67 221 3.0 7.0 0.00 0.01 0.00 55 1006.4
20260508230017 67 224 2.0 6.0 0.00 0.01 0.00 58 1006.5
20260508225020 67 228 2.0 5.0 0.00 0.01 0.00 57 1006.6
20260508224017 67 223 4.0 9.0 0.00 0.01 0.00 54 1006.6
20260508223037 66 229 2.0 6.0 0.00 0.01 0.00 57 1006.6
20260508222018 66 238 3.0 7.0 0.00 0.01 0.00 56 1006.6
20260508221017 66 232 2.0 6.0 0.00 0.01 0.00 55 1006.6
20260508220018 67 212 2.0 8.0 0.00 0.01 0.00 55 1006.7
20260508215018 67 234 2.0 7.0 0.00 0.01 0.00 56 1006.7
20260508214018 67 212 3.0 7.0 0.00 0.01 0.00 53 1006.7
20260508213018 68 220 3.0 12.0 0.00 0.01 0.00 52 1006.7
20260508212038 68 226 3.0 10.0 0.00 0.01 0.00 53 1006.7
20260508211019 67 222 2.0 5.0 0.00 0.01 0.00 54 1006.8
20260508210016 67 237 3.0 7.0 0.00 0.01 0.00 56 1006.9
20260508205019 67 162 2.0 7.0 0.00 0.01 0.00 55 1006.9
20260508204019 66 248 3.0 7.0 0.00 0.01 0.00 57 1007.0
20260508203016 65 174 3.0 6.0 0.00 0.01 0.00 58 1007.2
20260508202017 65 157 2.0 5.0 0.00 0.01 0.00 58 1007.3
20260508201037 66 200 2.0 6.0 0.00 0.01 0.00 57 1007.5
20260508200017 66 247 3.0 9.0 0.00 0.01 0.00 58 1007.6
20260508195020 65 205 2.0 7.0 0.00 0.01 0.00 59 1007.7
20260508194037 66 236 3.0 7.0 0.00 0.01 0.00 59 1007.9
20260508193017 65 213 3.0 9.0 0.00 0.01 0.00 62 1007.9
20260508192017 64 235 2.0 6.0 0.00 0.01 0.00 62 1007.9
20260508191018 65 185 2.0 4.0 0.00 0.01 0.00 61 1008.0
20260508190018 65 226 2.0 5.0 0.00 0.01 0.00 62 1008.1
20260508185018 65 218 2.0 5.0 0.00 0.01 0.00 59 1008.2
20260508184038 65 194 2.0 5.0 0.00 0.01 0.00 58 1008.2
20260508183018 65 100 2.0 5.0 0.00 0.01 0.00 59 1008.4
20260508182018 64 95 2.0 6.0 0.00 0.01 0.00 60 1008.5
20260508181016 64 204 2.0 4.0 0.00 0.01 0.00 61 1008.6
20260508180016 64 121 2.0 5.0 0.00 0.01 0.00 62 1008.6
20260508175019 64 139 2.0 4.0 0.00 0.01 0.00 62 1008.8
20260508174019 64 96 2.0 5.0 0.00 0.01 0.00 62 1008.8
20260508173020 63 135 2.0 6.0 0.00 0.01 0.00 63 1009.0
20260508172037 63 85 3.0 5.0 0.00 0.01 0.00 63 1009.2
20260508171017 63 109 3.0 6.0 0.00 0.01 0.00 64 1009.3
20260508170017 62 192 2.0 8.0 0.00 0.01 0.00 69 1009.5
20260508165020 61 92 3.0 6.0 0.00 0.01 0.00 69 1009.6
20260508164017 61 133 2.0 5.0 0.00 0.01 0.00 68 1009.7
20260508163017 61 128 2.0 6.0 0.00 0.01 0.00 70 1009.9
20260508162017 61 111 2.0 6.0 0.00 0.01 0.00 71 1010.0
20260508161018 61 87 3.0 4.0 0.00 0.01 0.00 70 1010.0
20260508160018 60 132 2.0 5.0 0.00 0.01 0.00 71 1010.1
20260508155018 60 92 2.0 6.0 0.00 0.01 0.00 73 1010.1
20260508154118 60 152 2.0 5.0 0.00 0.01 0.00 72 1010.2
20260508153018 60 110 3.0 7.0 0.00 0.01 0.00 72 1010.2
20260508152039 60 129 2.0 4.0 0.00 0.01 0.00 73 1010.3
20260508151036 60 115 2.0 6.0 0.00 0.01 0.00 73 1010.3
20260508150016 61 203 2.0 6.0 0.00 0.01 0.00 71 1010.3
20260508145019 60 189 3.0 7.0 0.00 0.01 0.00 73 1010.4
20260508144019 60 226 2.0 6.0 0.00 0.01 0.00 74 1010.5
20260508143019 58 162 2.0 6.0 0.00 0.01 0.00 76 1010.5
20260508142016 57 152 2.0 7.0 0.00 0.01 0.00 78 1010.5
20260508141017 57 153 2.0 5.0 0.00 0.01 0.00 81 1010.7
20260508140017 55 144 1.0 4.0 0.00 0.01 0.00 83 1010.8
20260508135020 54 224 2.0 5.0 0.00 0.01 0.00 86 1011.0
20260508134017 54 222 2.0 6.0 0.00 0.01 0.00 87 1011.3
20260508133018 53 101 2.0 5.0 0.00 0.01 0.00 88 1011.4
20260508132017 52 87 2.0 4.0 0.00 0.01 0.00 89 1011.5
20260508131018 51 107 1.0 2.0 0.00 0.01 0.00 89 1011.6
20260508130018 51 70 2.0 5.0 0.00 0.01 0.00 89 1011.6
20260508125038 50 80 2.0 4.0 0.00 0.01 0.00 90 1012.0